Regional Weather Roundup
Issued by NWS Mt. Holly, NJ

Home | Current Version | Previous Version | Text Only | Print | Product List | Glossary On
Versions: 1 2 3 4 5 6 7 8 9 10 11 12 13 14 15 16 17 18 19 20 21 22 23 24 25 26 27
000
ASUS41 KPHI 160012
RWRPHI

REGIONAL WEATHER ROUNDUP
NATIONAL WEATHER SERVICE MOUNT HOLLY NJ
700 PM EST FRI DEC 15 2017

NOTE:  "FAIR" INDICATES FEW OR NO CLOUDS BELOW 12,000 FEET WITH NO
SIGNIFICANT WEATHER AND/OR OBSTRUCTIONS TO VISIBILITY.

 * = STATION DOES NOT REPORT PRECIPITATION (E.G. RAIN, SNOW, ETC.)
        OR FOG.

NJZ015>026-160100-
SOUTHERN NEW JERSEY

CITY           SKY/WX    TMP DP  RH WIND       PRES   REMARKS
POMONA         LGT SNOW  25  24  96 NW5       29.93R VSB 1   WCI  19
6HR MIN TEMP:  24; 6HR MAX TEMP:  28; 6HR PCP:  0.10;

WILDWOOD*      LGT SNOW  27  25  93 N7        29.94S FOG     WCI  19
MILLVILLE      MIX PCPN  25  24  96 N3        29.93S
WRIGHTSTOWN    FLURRIES  23  21  93 NW3       29.89F
MOUNT HOLLY    CLOUDY    23  22  96 CALM      29.93S
TRENTON        CLOUDY    23  20  88 CALM      29.91F
6HR MIN TEMP:  23; 6HR MAX TEMP:  27; 6HR PCP: TRACE;


$$
NJZ001>014-160100-
NORTHERN NEW JERSEY

CITY           SKY/WX    TMP DP  RH WIND       PRES   REMARKS
SUSSEX         LGT SNOW  21  18  88 CALM      29.88S FOG
ANDOVER*       NOT AVBL
MORRISTOWN     LGT SNOW  23  21  93 S5        29.92S WCI  17
NEWARK         LGT SNOW  24  20  84 W6        29.93S WCI  17
TETERBORO      LGT SNOW  24  20  84 W3        29.92F FOG
CALDWELL       LGT SNOW  22  21  96 CALM      29.92F FOG
SOMERVILLE     LGT SNOW  22  21  96 CALM      29.91F FOG
ALLAIRE*       FLURRIES  22  20  92 NW7       29.92F WCI  13
TOMS RIVER*    LGT SNOW  23  21  92 CALM      29.92F FOG

$$
PAZ043-044-047-054-055-060>062-066>071-160100-
EASTERN PENNSYLVANIA

CITY           SKY/WX    TMP DP  RH WIND       PRES   REMARKS
PHILADELPHIA   CLOUDY    25  22  88 N5        29.94S WCI  19
6HR MIN TEMP:  25; 6HR MAX TEMP:  28; 6HR PCP:  0.16;

NORTH PHILA    CLOUDY    26  21  81 CALM      29.95R
BLUE BELL*     CLOUDY    23  21  93 CALM      29.93S
DOYLESTOWN     CLOUDY    22  19  89 CALM      29.90S
QUAKERTOWN*    CLOUDY    21  19  93 CALM      29.90S
PERKASIE*      CLOUDY    21  21 100 SW3       29.90S
POTTSTOWN      MOCLDY    21  19  92 CALM      29.93S FOG
LANCASTER      CLOUDY    24  22  91 W3        29.93R
COATESVILLE    MOCLDY    21  21 100 CALM      29.92R
READING        CLOUDY    22  22 100 CALM      29.92R
6HR MIN TEMP:  21; 6HR MAX TEMP:  25; 6HR PCP:  0.04;

ALLENTOWN      CLOUDY    22  18  85 NW3       29.91S
6HR MIN TEMP:  22; 6HR MAX TEMP:  26; 6HR PCP:  0.07;

MOUNT POCONO   CLOUDY    15  13  91 W8        29.77R WCI   4
6HR MIN TEMP:  15; 6HR MAX TEMP:  16; 6HR PCP:  0.03;

HAZLETON       CLOUDY    19  14  79 CALM      29.83S
LEHIGHTON      CLOUDY    21  19  93 CALM      29.91S
WILKES BARRE   CLOUDY    21  18  88 SW5       29.85R WCI  15

$$
DEZALL-MDZ008-012-015-019-020-160100-
DELAWARE AND EASTERN MARYLAND

CITY           SKY/WX    TMP DP  RH WIND       PRES   REMARKS
WILMINGTON     CLOUDY    25  22  88 NW5       29.95R WCI  19
6HR MIN TEMP:  25; 6HR MAX TEMP:  28; 6HR PCP:  0.14;

DOVER          CLOUDY    26  26 100 NW3       29.94S
GEORGETOWN     LGT SNOW  28  25  88 N5        29.94S FOG     WCI  23
6HR MIN TEMP:  27; 6HR MAX TEMP:  35; 6HR PCP:  0.04;

EASTON         CLOUDY    28  25  86 CALM      29.99R
ABERDEEN       MOCLDY    23  21  93 CALM      29.97R
PATUXENT       MOCLDY    30  28  92 NW8       29.96R WCI  22
OCEAN CITY     FLURRIES  29  26  89 N12       29.93R WCI  19
WALLOPS ISLAND CLOUDY    30  26  85 NW13      29.94R WCI  20
CAMBRIDGE      CLOUDY    28  27  93 N6        29.96R FOG     WCI  22
SALISBURY      MIX PCPN  27  26  96 N8        29.94S WCI  19

$$
PAZ001-021-NYZ056-072-MDZ011-DCZ001-160100-
OTHER NEARBY LOCATIONS

CITY           SKY/WX    TMP DP  RH WIND       PRES   REMARKS
HARRISBURG     CLOUDY    25  21  85 CALM      29.93R
STATE COLLEGE  CLOUDY    21  16  79 CALM      29.85R
WILLIAMSPORT   CLOUDY    22  16  78 CALM      29.88R
BINGHAMTON     CLOUDY    18  10  71 SW8       29.75S WCI   8
NEW YORK CITY  LGT SNOW  24  21  88 NW3       29.93S FOG
BALTIMORE      PTCLDY    22  22 100 W3        29.96R
WASHINGTON DC  PTCLDY    29  24  82 W6        29.99R WCI  23

$$




USA.gov is the U.S. government's official web portal to all federal, state and local government web resources and services.